Regional Weather Roundup
Issued by NWS

Home | Current Version | Previous Version | Graphics & Text | Print | Product List | Glossary On
Versions: 1 2 3 4 5 6 7 8 9 10 11 12 13 14 15 16 17 18 19 20 21 22 23 24 25 26 27 28 29 30 31 32 33 34 35 36 37 38 39 40 41 42 43 44 45 46 47 48 49 50
000
ASUS43 KLOT 052300
RWRIL

ILLINOIS REGIONAL WEATHER ROUNDUP
NATIONAL WEATHER SERVICE CHICAGO/ROMEOVILLE IL
600 PM CDT SUN JUL 05 2015

NOTE: "FAIR" INDICATES FEW OR NO CLOUDS BELOW 12,000 FEET WITH NO
SIGNIFICANT WEATHER AND/OR OBSTRUCTIONS TO VISIBILITY.

* THESE STATIONS ARE NOT UNDER NWS QUALITY CONTROL. THEY ALSO MAY NOT
  REPORT WEATHER SUCH AS PRECIPITATION OR FOG.

ILZ001-002-007-009-015-016-024-060000-
NORTHWEST ILLINOIS

CITY           SKY/WX    TMP DP  RH WIND       PRES   REMARKS
MOLINE         PTSUNNY   79  66  64 SE7       29.99F HX  81
STERLING*      MOSUNNY   81  66  61 S7        30.01F HX  83
$$

ILZ003-004-008-010-011-017-018-060000-
NORTH CENTRAL ILLINOIS

CITY           SKY/WX    TMP DP  RH WIND       PRES   REMARKS
ROCKFORD       MOSUNNY   81  63  54 S12       30.03F HX  82
$$

ILZ005-006-012>014-019>023-060000-
NORTHEAST ILLINOIS

CITY           SKY/WX    TMP DP  RH WIND       PRES   REMARKS
CHICAGO-OHARE  MOSUNNY   81  60  48 SW8       30.02F HX  82
CHICAGO-MIDWAY MOSUNNY   84  60  44 S10       30.02F HX  84
AURORA         SUNNY     81  61  50 S10       30.03F HX  82
WAUKEGAN       SUNNY     74  60  61 SE9       30.03F
DUPAGE AIRPORT SUNNY     80  62  54 S7        30.03S HX  81
WHEELING       SUNNY     82  59  45 S9        30.03F HX  82
NORTHERLY ISL    N/A     72  64  76 S1          N/A
$$

LMZ740>746-060000-
SOUTHERN LAKE MICHIGAN

STATION/POSITION SKY/WX   TEMP    WIND        PRES    VSBY  WAVE
                          AIR SEA DIR/SP/G                  HT/PER
                          (F)     (DEG/KT/KT) (MB)    (MI)  (FT/S)
HARRISON CRIB              72     100/ 17/ 17   N/A
BURNHAM HARBOR             72     100/  9/ 13   N/A
CALUMET HARBOR             75      90/ 10/ 13   N/A
BURNS HARBOR               71      20/  4/  6 1017.9
MICHIGAN CITY              70      40/ 11/ 12   N/A
MICHIGAN CITY 6N           71 69   70/  6/  6   N/A           1
ST. JOSEPH                 70 69                N/A           0
$$

ILZ025>027-034>036-040-047-049-050-058-095>099-060000-
WEST-CENTRAL ILLINOIS

CITY           SKY/WX    TMP DP  RH WIND       PRES   REMARKS
QUINCY         MOSUNNY   84  68  58 SE9       29.99S HX  87
$$

ILZ028>032-037-038-041>044-048-051>054-059>061-060000-
CENTRAL ILLINOIS

CITY           SKY/WX    TMP DP  RH WIND       PRES   REMARKS
DECATUR        SUNNY     82  65  56 S8        30.04F HX  84
PEORIA         SUNNY     83  63  50 S8        30.02F HX  84
SPRINGFIELD    MOSUNNY   84  68  58 S7        30.02S HX  87
TAYLORVILLE    NOT AVBL
$$

ILZ033-039-045-046-055>057-062-063-060000-
EAST-CENTRAL ILLINOIS

CITY           SKY/WX    TMP DP  RH WIND       PRES   REMARKS
CHAMPAIGN      MOSUNNY   81  67  62 SW3       30.05F HX  83
MATTOON        MOSUNNY   81  67  62 SE5       30.03F HX  83
$$

ILZ079-100>102-060000-
SOUTHWEST ILLINOIS

CITY           SKY/WX    TMP DP  RH WIND       PRES   REMARKS
BELLEVILLE     SUNNY     84  68  58 SE6       29.99F HX  87
CAHOKIA*       SUNNY     85  65  51 SE10      29.99F HX  86
$$

ILZ064>066-069>071-074>076-080>082-084>086-088>090-092>094-060000-
SOUTH-CENTRAL ILLINOIS

CITY           SKY/WX    TMP DP  RH WIND       PRES   REMARKS
CARBONDALE     SUNNY     83  67  58 S5        30.01F HX  85
MARION         SUNNY     84  66  54 S6        30.02F HX  86
MT. VERNON     SUNNY     84  64  51 S5        30.02F HX  86
$$

ILZ067-068-072-073-078-083-087-091-060000-
SOUTHEAST ILLINOIS

CITY           SKY/WX    TMP DP  RH WIND       PRES   REMARKS
LAWRENCEVILLE  SUNNY     82  69  64 S6        30.03F HX  85
$$

ABBREVIATIONS USED IN REMARKS
   TC - TEMPERATURE IN CELSIUS
  WCI - WIND CHILL INDEX
   HX - HEAT INDEX
  VSB - VISIBILITY
$$




USA.gov is the U.S. government's official web portal to all federal, state and local government web resources and services.